Date String (YYYY-MM-DD hh:mm:ss) UTC,Instrument flags,Ambient pressure (hPa),Sample flow (lpm),Bypass flow (lpm),Sample temperature (°C),Ambient temperature (°C),ASC tube jacket temperature (°C),LED temperature (°C),Box temperature (°C),Sample RH (%),Span deviation,Mass concentration (μg/m³),Mass concentration (μg/m³),Mass concentration (μg/m³)
DateTimeUTC,F1_M11,P_M11,Q1_M11,Q2_M11,T1_M11,T2_M11,T3_M11,T4_M11,T5_M11,U1_M11,ZSPAN_M11,X0_M11,X2_M11,X1_M11
2022-11-21 18:00:00,,0830.1,5.01,0.00,25.0,24.0,00.0,33.7,26.9,08.3,0000.0,0007.56,0004.99,0004.72
2022-11-21 18:01:00,,0830.1,5.00,0.00,25.0,24.0,00.0,33.7,26.9,08.3,0000.0,0007.72,0004.98,0004.71
2022-11-21 18:02:00,,0830.1,5.00,0.00,25.0,24.0,00.0,33.7,26.9,08.3,0000.0,0008.19,0004.94,0004.68
2022-11-21 18:03:00,,0830.1,5.00,0.00,25.0,24.0,00.0,33.7,26.9,08.2,0000.0,0008.18,0004.92,0004.66
2022-11-21 18:04:00,,0830.1,5.00,0.00,25.0,24.0,00.0,33.8,26.9,08.1,0000.0,0008.23,0004.92,0004.64
2022-11-21 18:05:00,,0830.1,4.98,0.00,25.1,24.0,00.0,33.8,26.9,08.2,0000.0,0008.29,0004.93,0004.62
2022-11-21 18:06:00,,0830.1,5.02,0.00,25.1,24.1,00.0,33.8,27.0,08.1,0000.0,0008.20,0004.90,0004.60
2022-11-21 18:07:00,,0830.1,5.01,0.00,25.1,24.1,00.0,33.8,27.0,08.2,0000.0,0008.80,0004.87,0004.59
2022-11-21 18:08:00,,0830.0,4.99,0.00,25.1,24.1,00.0,33.8,27.0,07.7,0000.0,0008.84,0004.81,0004.57
2022-11-21 18:09:00,,0830.0,4.99,0.00,25.1,24.1,00.0,33.9,27.0,07.4,0000.0,0008.80,0004.74,0004.49
2022-11-21 18:10:00,,0830.0,5.02,0.00,25.1,24.1,00.0,33.9,27.0,07.7,0000.0,0008.84,0004.70,0004.42
2022-11-21 18:11:00,,0830.0,5.00,0.00,25.2,24.2,00.0,33.9,27.1,07.7,0000.0,0008.79,0004.65,0004.38
2022-11-21 18:12:00,,0830.0,4.99,0.00,25.2,24.2,00.0,33.9,27.1,08.2,0000.0,0008.63,0004.58,0004.33
2022-11-21 18:13:00,,0830.0,4.99,0.00,25.2,24.2,00.0,33.9,27.1,08.1,0000.0,0007.98,0004.55,0004.30
2022-11-21 18:14:00,,0829.9,5.01,0.00,25.2,24.2,00.0,33.9,27.1,07.5,0000.0,0008.00,0004.53,0004.27
2022-11-21 18:15:00,,0829.9,5.01,0.00,25.2,24.3,00.0,34.0,27.1,07.5,0000.0,0008.21,0004.57,0004.32
2022-11-21 18:16:00,,0829.9,5.00,0.00,25.3,24.3,00.0,34.0,27.2,07.9,0000.0,0008.17,0004.57,0004.35
2022-11-21 18:17:00,,0829.9,4.99,0.00,25.3,24.3,00.0,34.0,27.2,07.7,0000.0,0008.25,0004.63,0004.42
2022-11-21 18:18:00,,0829.9,5.00,0.00,25.3,24.3,00.0,34.0,27.2,07.7,0000.0,0007.79,0004.71,0004.50
2022-11-21 18:19:00,,0829.9,5.01,0.00,25.3,24.3,00.0,34.0,27.2,07.9,0000.0,0007.62,0004.79,0004.55
2022-11-21 18:20:00,,0829.9,5.00,0.00,25.3,24.4,00.0,34.1,27.2,07.7,0000.0,0007.70,0004.91,0004.68
2022-11-21 18:21:00,,0829.8,4.99,0.00,25.4,24.4,00.0,34.1,27.2,07.5,0000.0,0007.81,0005.06,0004.84
2022-11-21 18:22:00,,0829.8,4.99,0.00,25.4,24.4,00.0,34.1,27.3,07.9,0000.0,0008.04,0005.22,0005.00
2022-11-21 18:23:00,,0829.8,5.00,0.00,25.4,24.4,00.0,34.1,27.3,08.0,0000.0,0008.21,0005.35,0005.11
2022-11-21 18:24:00,,0829.8,5.00,0.00,25.4,24.4,00.0,34.1,27.3,07.7,0000.0,0008.37,0005.51,0005.23
2022-11-21 18:25:00,,0829.8,5.01,0.00,25.4,24.4,00.0,34.1,27.3,07.7,0000.0,0008.50,0005.65,0005.39
2022-11-21 18:26:00,,0829.8,5.01,0.00,25.4,24.5,00.0,34.2,27.3,07.8,0000.0,0008.48,0005.74,0005.47
2022-11-21 18:27:00,,0829.8,4.98,0.00,25.5,24.5,00.0,34.2,27.4,07.7,0000.0,0008.55,0005.88,0005.60
2022-11-21 18:28:00,,0829.7,5.00,0.00,25.5,24.5,00.0,34.2,27.4,07.8,0000.0,0008.66,0006.01,0005.73
2022-11-21 18:29:00,,0829.7,5.01,0.00,25.5,24.5,00.0,34.2,27.4,07.7,0000.0,0008.81,0006.18,0005.88
2022-11-21 18:30:00,,0829.7,5.01,0.00,25.5,24.5,00.0,34.2,27.4,07.9,0000.0,0009.16,0006.39,0006.05
2022-11-21 18:31:00,,0829.7,4.98,0.00,25.5,24.6,00.0,34.3,27.4,07.8,0000.0,0009.42,0006.59,0006.25
2022-11-21 18:32:00,,0829.6,5.02,0.00,25.6,24.6,00.0,34.3,27.5,07.8,0000.0,0009.55,0006.73,0006.38
2022-11-21 18:33:00,,0829.6,5.00,0.00,25.6,24.6,00.0,34.3,27.5,07.8,0000.0,0010.08,0006.86,0006.51
2022-11-21 18:34:00,,0829.7,5.00,0.00,25.6,24.6,00.0,34.3,27.5,07.8,0000.0,0011.24,0007.07,0006.70
2022-11-21 18:35:00,,0829.6,5.00,0.00,25.6,24.6,00.0,34.3,27.5,07.9,0001.8,0011.50,0007.23,0006.89
2022-11-21 18:36:00,,0829.5,5.00,0.00,25.6,24.7,00.0,34.4,27.6,07.9,0004.8,0011.76,0007.42,0007.06
2022-11-21 18:37:00,,0829.6,5.00,0.00,25.7,24.7,00.0,34.4,27.6,08.1,0005.0,0012.06,0007.57,0007.20
2022-11-21 18:38:00,,0829.6,5.00,0.00,25.7,24.7,00.0,34.4,27.6,07.9,0004.6,0012.31,0007.74,0007.31
2022-11-21 18:39:00,,0829.5,5.00,0.00,25.7,24.7,00.0,34.4,27.6,08.0,0004.9,0012.72,0007.86,0007.41
2022-11-21 18:40:00,,0829.5,5.00,0.00,25.7,24.8,00.0,34.4,27.6,08.1,0005.4,0013.17,0007.92,0007.46
2022-11-21 18:41:00,,0829.6,5.00,0.00,25.7,24.8,00.0,34.4,27.6,08.1,0005.4,0013.39,0007.96,0007.52
2022-11-21 18:42:00,,0829.6,5.00,0.00,25.8,24.8,00.0,34.5,27.7,08.1,0005.8,0013.93,0008.02,0007.58
2022-11-21 18:43:00,,0829.7,5.00,0.00,25.8,24.8,00.0,34.5,27.7,08.3,0005.9,0013.96,0008.06,0007.62
2022-11-21 18:44:00,,0829.6,5.00,0.00,25.8,24.9,00.0,34.5,27.7,08.4,0005.7,0013.51,0008.04,0007.61
2022-11-21 18:45:00,,0829.5,5.01,0.00,25.8,24.9,00.0,34.5,27.7,08.3,0005.2,0012.47,0007.98,0007.58
2022-11-21 18:46:00,,0829.5,5.00,0.00,25.8,24.9,00.0,34.6,27.8,08.5,0005.4,0012.31,0007.91,0007.52
2022-11-21 18:47:00,,0829.5,5.00,0.00,25.9,24.9,00.0,34.6,27.8,08.3,0005.5,0012.14,0007.77,0007.39
2022-11-21 18:48:00,,0829.5,5.00,0.00,25.9,25.0,00.0,34.6,27.8,08.4,0005.2,0012.09,0007.65,0007.28
2022-11-21 18:49:00,,0829.5,5.00,0.00,25.9,25.0,00.0,34.6,27.8,08.3,0005.7,0011.90,0007.48,0007.16
2022-11-21 18:50:00,,0829.5,5.00,0.00,26.0,25.0,00.0,34.7,27.8,08.4,0005.8,0011.71,0007.31,0007.01
2022-11-21 18:51:00,,0829.5,5.00,0.00,26.0,25.0,00.0,34.7,27.9,08.1,0005.7,0011.56,0007.18,0006.88
2022-11-21 18:52:00,,0829.5,5.00,0.00,26.0,25.1,00.0,34.7,27.9,08.2,0005.7,0011.57,0007.05,0006.75
2022-11-21 18:53:00,,0829.5,5.00,0.00,26.0,25.1,00.0,34.7,27.9,08.4,0005.6,0010.98,0006.91,0006.62
2022-11-21 18:54:00,,0829.4,5.01,0.00,26.0,25.1,00.0,34.7,27.9,08.3,0005.7,0010.96,0006.76,0006.49
2022-11-21 18:55:00,,0829.4,5.00,0.00,26.1,25.1,00.0,34.8,28.0,08.1,0006.0,0010.83,0006.68,0006.40
2022-11-21 18:56:00,,0829.4,5.00,0.00,26.1,25.2,00.0,34.8,28.0,08.7,0006.5,0010.82,0006.64,0006.34
2022-11-21 18:57:00,,0829.4,4.99,0.00,26.1,25.2,00.0,34.8,28.0,08.1,0006.6,0010.81,0006.62,0006.31
2022-11-21 18:58:00,,0829.3,5.00,0.00,26.1,25.2,00.0,34.8,28.0,08.2,0003.6,0010.93,0006.64,0006.33
2022-11-21 18:59:00,,0829.4,5.00,0.00,26.2,25.2,00.0,34.8,28.1,08.1,0000.0,0010.85,0006.72,0006.39
